Time,TemperatureF,DewpointF,PressureIn,WindDirection,WindDirectionDegrees,WindSpeedMPH,WindSpeedGustMPH,Humidity,HourlyPrecipIn,Conditions,Clouds,dailyrainin,SoftwareType,DateUTC
2013-05-11 00:01:00,33.0,31.0,30.53,NW,320,8.0,9.0,94,-99.99,,,-99.99,,2013-05-11 06:01:00,
2013-05-11 00:06:00,33.0,31.0,30.53,NNW,330,6.0,8.0,93,-99.99,,,-99.99,,2013-05-11 06:06:00,
2013-05-11 00:16:00,33.0,31.0,30.54,NNW,330,7.0,10.0,94,-99.99,,,-99.99,,2013-05-11 06:16:00,
2013-05-11 00:21:00,33.0,31.0,30.54,NNW,340,5.0,9.0,94,-99.99,,,-99.99,,2013-05-11 06:21:00,
2013-05-11 00:26:00,32.0,30.0,30.54,NNE,20,7.0,7.0,94,-99.99,,,-99.99,,2013-05-11 06:26:00,
2013-05-11 00:36:00,32.0,30.0,30.54,North,10,5.0,6.0,95,-99.99,,,-99.99,,2013-05-11 06:36:00,
2013-05-11 00:46:00,32.0,31.0,30.55,NW,320,7.0,8.0,95,-99.99,,,-99.99,,2013-05-11 06:46:00,
2013-05-11 00:51:00,32.0,31.0,30.55,NW,310,10.0,10.0,95,-99.99,,,-99.99,,2013-05-11 06:51:00,
2013-05-11 01:01:00,32.0,30.0,30.55,North,350,9.0,11.0,95,-99.99,,,-99.99,,2013-05-11 07:01:00,
2013-05-11 01:11:00,32.0,31.0,30.55,North,10,7.0,10.0,96,-99.99,,,-99.99,,2013-05-11 07:11:00,
2013-05-11 01:16:00,32.0,31.0,30.55,North,350,7.0,9.0,96,-99.99,,,-99.99,,2013-05-11 07:16:00,
2013-05-11 01:21:00,32.0,31.0,30.55,WNW,290,8.0,8.0,95,-99.99,,,-99.99,,2013-05-11 07:21:00,
2013-05-11 01:26:00,32.0,30.0,30.55,NNW,330,8.0,10.0,95,-99.99,,,-99.99,,2013-05-11 07:26:00,
2013-05-11 01:31:00,31.0,30.0,30.55,NNW,330,9.0,9.0,96,-99.99,,,-99.99,,2013-05-11 07:31:00,
2013-05-11 01:41:00,31.0,30.0,30.55,WNW,290,7.0,9.0,96,-99.99,,,-99.99,,2013-05-11 07:41:00,
2013-05-11 01:46:00,31.0,30.0,30.55,NNE,20,6.0,9.0,96,-99.99,,,-99.99,,2013-05-11 07:46:00,
2013-05-11 01:51:00,31.0,30.0,30.55,NNE,20,5.0,8.0,96,-99.99,,,-99.99,,2013-05-11 07:51:00,
2013-05-11 01:56:00,31.0,30.0,30.55,NNE,30,9.0,9.0,95,-99.99,,,-99.99,,2013-05-11 07:56:00,
2013-05-11 02:06:00,31.0,30.0,30.55,NNE,30,6.0,8.0,96,-99.99,,,-99.99,,2013-05-11 08:06:00,
2013-05-11 02:11:00,31.0,30.0,30.55,NNE,30,4.0,8.0,96,-99.99,,,-99.99,,2013-05-11 08:11:00,
2013-05-11 02:21:00,31.0,30.0,30.55,North,0,7.0,7.0,96,-99.99,,,-99.99,,2013-05-11 08:21:00,
2013-05-11 02:26:00,31.0,30.0,30.55,North,350,8.0,8.0,96,-99.99,,,-99.99,,2013-05-11 08:26:00,
2013-05-11 02:36:00,31.0,30.0,30.55,NE,40,6.0,9.0,96,-99.99,,,-99.99,,2013-05-11 08:36:00,
2013-05-11 02:41:00,31.0,30.0,30.55,NNW,340,4.0,7.0,96,-99.99,,,-99.99,,2013-05-11 08:41:00,
2013-05-11 02:46:00,31.0,30.0,30.55,NW,310,9.0,9.0,96,-99.99,,,-99.99,,2013-05-11 08:46:00,
2013-05-11 02:51:00,30.0,29.0,30.55,NW,310,9.0,9.0,96,-99.99,,,-99.99,,2013-05-11 08:51:00,
2013-05-11 03:01:00,30.0,29.0,30.55,NNE,20,5.0,8.0,97,-99.99,,,-99.99,,2013-05-11 09:01:00,
2013-05-11 03:06:00,30.0,29.0,30.55,North,0,6.0,7.0,97,-99.99,,,-99.99,,2013-05-11 09:06:00,
2013-05-11 03:11:00,30.0,29.0,30.55,North,0,6.0,7.0,97,-99.99,,,-99.99,,2013-05-11 09:11:00,
2013-05-11 03:21:00,30.0,29.0,30.55,NE,40,5.0,7.0,98,-99.99,,,-99.99,,2013-05-11 09:21:00,
2013-05-11 03:31:00,30.0,29.0,30.55,NNW,330,4.0,6.0,97,-99.99,,,-99.99,,2013-05-11 09:31:00,
2013-05-11 03:36:00,30.0,29.0,30.55,NW,320,0.0,6.0,97,-99.99,,,-99.99,,2013-05-11 09:36:00,
2013-05-11 03:41:00,30.0,29.0,30.55,NW,320,6.0,7.0,96,-99.99,,,-99.99,,2013-05-11 09:41:00,
2013-05-11 03:46:00,30.0,29.0,30.55,NNW,330,8.0,8.0,97,-99.99,,,-99.99,,2013-05-11 09:46:00,
2013-05-11 03:56:00,30.0,29.0,30.55,NNW,330,7.0,10.0,97,-99.99,,,-99.99,,2013-05-11 09:56:00,
2013-05-11 04:06:00,29.0,29.0,30.55,NNW,340,7.0,10.0,97,-99.99,,,-99.99,,2013-05-11 10:06:00,
2013-05-11 04:11:00,29.0,28.0,30.55,NNW,340,7.0,10.0,97,-99.99,,,-99.99,,2013-05-11 10:11:00,
2013-05-11 04:16:00,29.0,28.0,30.55,North,0,0.0,8.0,97,-99.99,,,-99.99,,2013-05-11 10:16:00,
2013-05-11 04:21:00,29.0,28.0,30.55,North,0,0.0,0.0,98,-99.99,,,-99.99,,2013-05-11 10:21:00,
2013-05-11 04:31:00,29.0,28.0,30.55,North,0,7.0,8.0,98,-99.99,,,-99.99,,2013-05-11 10:31:00,
2013-05-11 04:36:00,29.0,28.0,30.55,North,350,8.0,8.0,98,-99.99,,,-99.99,,2013-05-11 10:36:00,
2013-05-11 04:41:00,29.0,29.0,30.55,NNW,340,5.0,9.0,98,-99.99,,,-99.99,,2013-05-11 10:41:00,
2013-05-11 04:46:00,29.0,29.0,30.55,NNE,20,5.0,8.0,98,-99.99,,,-99.99,,2013-05-11 10:46:00,
2013-05-11 04:56:00,29.0,29.0,30.55,NNE,30,4.0,6.0,98,-99.99,,,-99.99,,2013-05-11 10:56:00,
2013-05-11 05:01:00,29.0,29.0,30.55,North,0,3.0,5.0,98,-99.99,,,-99.99,,2013-05-11 11:01:00,
2013-05-11 05:11:00,29.0,28.0,30.55,NNW,340,0.0,6.0,98,-99.99,,,-99.99,,2013-05-11 11:11:00,
2013-05-11 05:21:00,29.0,28.0,30.55,NW,310,7.0,7.0,97,-99.99,,,-99.99,,2013-05-11 11:21:00,
2013-05-11 05:31:00,29.0,28.0,30.55,NNW,330,7.0,7.0,98,-99.99,,,-99.99,,2013-05-11 11:31:00,
2013-05-11 05:41:00,28.0,28.0,30.55,NNW,340,8.0,8.0,98,-99.99,,,-99.99,,2013-05-11 11:41:00,
2013-05-11 05:51:00,28.0,27.0,30.55,North,0,7.0,10.0,98,-99.99,,,-99.99,,2013-05-11 11:51:00,
2013-05-11 06:01:00,28.0,27.0,30.55,NW,320,5.0,9.0,98,-99.99,,,-99.99,,2013-05-11 12:01:00,
2013-05-11 06:06:00,28.0,27.0,30.56,North,10,5.0,8.0,99,-99.99,,,-99.99,,2013-05-11 12:06:00,
2013-05-11 06:16:00,28.0,28.0,30.56,NNE,20,6.0,9.0,99,-99.99,,,-99.99,,2013-05-11 12:16:00,
2013-05-11 06:26:00,28.0,28.0,30.56,WNW,300,6.0,9.0,98,-99.99,,,-99.99,,2013-05-11 12:26:00,
2013-05-11 06:36:00,28.0,28.0,30.56,WNW,300,9.0,10.0,98,-99.99,,,-99.99,,2013-05-11 12:36:00,
2013-05-11 06:41:00,29.0,28.0,30.57,NNW,330,9.0,10.0,97,-99.99,,,-99.99,,2013-05-11 12:41:00,
2013-05-11 06:46:00,29.0,28.0,30.57,NW,310,6.0,9.0,97,-99.99,,,-99.99,,2013-05-11 12:46:00,
2013-05-11 06:51:00,30.0,29.0,30.57,NW,320,7.0,7.0,97,-99.99,,,-99.99,,2013-05-11 12:51:00,
2013-05-11 06:56:00,30.0,29.0,30.57,WNW,300,6.0,8.0,96,-99.99,,,-99.99,,2013-05-11 12:56:00,
2013-05-11 07:01:00,31.0,30.0,30.57,North,10,7.0,9.0,95,-99.99,,,-99.99,,2013-05-11 13:01:00,
2013-05-11 07:06:00,32.0,30.0,30.58,NW,320,9.0,10.0,94,-99.99,,,-99.99,,2013-05-11 13:06:00,
2013-05-11 07:16:00,33.0,31.0,30.58,North,350,7.0,9.0,92,-99.99,,,-99.99,,2013-05-11 13:16:00,
2013-05-11 07:26:00,35.0,32.0,30.58,NNW,330,5.0,9.0,90,-99.99,,,-99.99,,2013-05-11 13:26:00,
2013-05-11 07:31:00,35.0,32.0,30.58,WNW,300,6.0,8.0,88,-99.99,,,-99.99,,2013-05-11 13:31:00,
2013-05-11 07:36:00,36.0,32.0,30.58,NW,310,7.0,9.0,86,-99.99,,,-99.99,,2013-05-11 13:36:00,
2013-05-11 07:46:00,38.0,33.0,30.58,WNW,300,5.0,8.0,85,-99.99,,,-99.99,,2013-05-11 13:46:00,
2013-05-11 07:56:00,39.0,34.0,30.58,WNW,290,0.0,0.0,81,-99.99,,,-99.99,,2013-05-11 13:56:00,
2013-05-11 08:06:00,40.0,34.0,30.58,WNW,290,3.0,8.0,79,-99.99,,,-99.99,,2013-05-11 14:06:00,
2013-05-11 08:11:00,40.0,34.0,30.58,NW,310,8.0,8.0,78,-99.99,,,-99.99,,2013-05-11 14:11:00,
2013-05-11 08:21:00,41.0,34.0,30.58,NW,320,0.0,8.0,76,-99.99,,,-99.99,,2013-05-11 14:21:00,
2013-05-11 08:31:00,42.0,34.0,30.58,NW,320,0.0,8.0,72,-99.99,,,-99.99,,2013-05-11 14:31:00,
2013-05-11 08:41:00,44.0,35.0,30.58,WNW,300,6.0,7.0,69,-99.99,,,-99.99,,2013-05-11 14:41:00,
2013-05-11 08:51:00,46.0,35.0,30.58,West,280,5.0,7.0,65,-99.99,,,-99.99,,2013-05-11 14:51:00,
2013-05-11 09:01:00,47.0,34.0,30.57,NW,310,5.0,7.0,61,-99.99,,,-99.99,,2013-05-11 15:01:00,
2013-05-11 09:06:00,47.0,33.0,30.57,North,350,5.0,8.0,59,-99.99,,,-99.99,,2013-05-11 15:06:00,
2013-05-11 09:11:00,47.0,35.0,30.57,WNW,300,5.0,7.0,61,-99.99,,,-99.99,,2013-05-11 15:11:00,
2013-05-11 09:16:00,48.0,34.0,30.57,WNW,290,4.0,7.0,58,-99.99,,,-99.99,,2013-05-11 15:16:00,
2013-05-11 09:26:00,50.0,33.0,30.57,WSW,250,0.0,5.0,52,-99.99,,,-99.99,,2013-05-11 15:26:00,
2013-05-11 09:31:00,51.0,34.0,30.57,NNE,20,4.0,4.0,51,-99.99,,,-99.99,,2013-05-11 15:31:00,
2013-05-11 09:36:00,52.0,35.0,30.57,North,10,0.0,4.0,52,-99.99,,,-99.99,,2013-05-11 15:36:00,
2013-05-11 09:46:00,53.0,33.0,30.57,NNW,330,0.0,5.0,47,-99.99,,,-99.99,,2013-05-11 15:46:00,
2013-05-11 09:56:00,54.0,32.0,30.57,NNW,330,0.0,0.0,43,-99.99,,,-99.99,,2013-05-11 15:56:00,
2013-05-11 10:01:00,54.0,30.0,30.56,NNW,330,0.0,3.0,41,-99.99,,,-99.99,,2013-05-11 16:01:00,
2013-05-11 10:11:00,55.0,31.0,30.57,NNW,330,0.0,0.0,41,-99.99,,,-99.99,,2013-05-11 16:11:00,
2013-05-11 10:21:00,56.0,32.0,30.56,South,180,0.0,5.0,41,-99.99,,,-99.99,,2013-05-11 16:21:00,
2013-05-11 10:31:00,56.0,33.0,30.56,South,180,0.0,5.0,42,-99.99,,,-99.99,,2013-05-11 16:31:00,
2013-05-11 10:36:00,56.0,32.0,30.56,SE,130,1.0,3.0,40,-99.99,,,-99.99,,2013-05-11 16:36:00,
2013-05-11 10:46:00,56.0,32.0,30.56,ESE,110,3.0,7.0,40,-99.99,,,-99.99,,2013-05-11 16:46:00,
2013-05-11 10:51:00,56.0,31.0,30.56,WSW,240,8.0,8.0,39,-99.99,,,-99.99,,2013-05-11 16:51:00,
2013-05-11 10:56:00,57.0,30.0,30.56,ESE,120,5.0,8.0,37,-99.99,,,-99.99,,2013-05-11 16:56:00,
2013-05-11 11:06:00,57.0,30.0,30.56,North,0,6.0,12.0,36,-99.99,,,-99.99,,2013-05-11 17:06:00,
2013-05-11 11:11:00,57.0,28.0,30.56,NNE,20,7.0,8.0,34,-99.99,,,-99.99,,2013-05-11 17:11:00,
2013-05-11 11:21:00,57.0,29.0,30.56,NNW,340,0.0,4.0,34,-99.99,,,-99.99,,2013-05-11 17:21:00,
2013-05-11 11:26:00,57.0,29.0,30.56,NNW,340,0.0,0.0,34,-99.99,,,-99.99,,2013-05-11 17:26:00,
2013-05-11 11:31:00,58.0,30.0,30.56,ENE,60,2.0,4.0,35,-99.99,,,-99.99,,2013-05-11 17:31:00,
2013-05-11 11:36:00,58.0,28.0,30.56,North,10,0.0,4.0,32,-99.99,,,-99.99,,2013-05-11 17:36:00,
2013-05-11 11:46:00,57.0,28.0,30.56,East,100,0.0,7.0,33,-99.99,,,-99.99,,2013-05-11 17:46:00,
2013-05-11 11:56:00,58.0,31.0,30.56,SW,230,6.0,6.0,36,-99.99,,,-99.99,,2013-05-11 17:56:00,
2013-05-11 12:06:00,58.0,28.0,30.56,NW,310,10.0,14.0,32,-99.99,,,-99.99,,2013-05-11 18:06:00,
2013-05-11 12:11:00,57.0,28.0,30.56,ENE,60,0.0,11.0,33,-99.99,,,-99.99,,2013-05-11 18:11:00,
2013-05-11 12:21:00,58.0,28.0,30.56,ENE,70,0.0,9.0,32,-99.99,,,-99.99,,2013-05-11 18:21:00,
2013-05-11 12:26:00,57.0,27.0,30.55,NNW,340,0.0,12.0,31,-99.99,,,-99.99,,2013-05-11 18:26:00,
2013-05-11 12:36:00,57.0,28.0,30.55,South,190,5.0,5.0,34,-99.99,,,-99.99,,2013-05-11 18:36:00,
2013-05-11 12:41:00,58.0,28.0,30.55,ENE,60,5.0,9.0,32,-99.99,,,-99.99,,2013-05-11 18:41:00,
2013-05-11 12:51:00,59.0,29.0,30.55,NW,310,8.0,12.0,33,-99.99,,,-99.99,,2013-05-11 18:51:00,
2013-05-11 12:56:00,59.0,29.0,30.55,NNE,30,9.0,13.0,33,-99.99,,,-99.99,,2013-05-11 18:56:00,
2013-05-11 13:01:00,59.0,29.0,30.55,WNW,290,12.0,12.0,32,-99.99,,,-99.99,,2013-05-11 19:01:00,
2013-05-11 13:11:00,60.0,28.0,30.55,NW,320,7.0,13.0,30,-99.99,,,-99.99,,2013-05-11 19:11:00,
2013-05-11 13:16:00,60.0,28.0,30.55,South,190,7.0,10.0,30,-99.99,,,-99.99,,2013-05-11 19:16:00,
2013-05-11 13:26:00,61.0,27.0,30.55,SW,220,10.0,15.0,27,-99.99,,,-99.99,,2013-05-11 19:26:00,
2013-05-11 13:31:00,61.0,28.0,30.54,North,10,8.0,14.0,29,-99.99,,,-99.99,,2013-05-11 19:31:00,
2013-05-11 13:41:00,61.0,26.0,30.54,West,280,5.0,13.0,27,-99.99,,,-99.99,,2013-05-11 19:41:00,
2013-05-11 13:46:00,61.0,27.0,30.54,North,0,5.0,16.0,27,-99.99,,,-99.99,,2013-05-11 19:46:00,
2013-05-11 13:51:00,61.0,26.0,30.54,West,280,11.0,15.0,26,-99.99,,,-99.99,,2013-05-11 19:51:00,
2013-05-11 14:01:00,60.0,26.0,30.54,West,280,9.0,16.0,27,-99.99,,,-99.99,,2013-05-11 20:01:00,
2013-05-11 14:06:00,60.0,25.0,30.54,NW,310,16.0,16.0,26,-99.99,,,-99.99,,2013-05-11 20:06:00,
2013-05-11 14:16:00,61.0,26.0,30.53,SW,230,0.0,9.0,27,-99.99,,,-99.99,,2013-05-11 20:16:00,
2013-05-11 14:21:00,62.0,27.0,30.54,West,260,12.0,12.0,26,-99.99,,,-99.99,,2013-05-11 20:21:00,
2013-05-11 14:31:00,62.0,26.0,30.53,NNW,330,13.0,17.0,26,-99.99,,,-99.99,,2013-05-11 20:31:00,
2013-05-11 14:36:00,62.0,26.0,30.54,WNW,300,11.0,16.0,24,-99.99,,,-99.99,,2013-05-11 20:36:00,
2013-05-11 14:46:00,63.0,26.0,30.53,West,280,9.0,14.0,25,-99.99,,,-99.99,,2013-05-11 20:46:00,
2013-05-11 14:56:00,62.0,26.0,30.53,West,280,16.0,18.0,25,-99.99,,,-99.99,,2013-05-11 20:56:00,
2013-05-11 15:01:00,62.0,25.0,30.53,West,260,14.0,19.0,25,-99.99,,,-99.99,,2013-05-11 21:01:00,
2013-05-11 15:11:00,61.0,25.0,30.53,WSW,240,11.0,16.0,26,-99.99,,,-99.99,,2013-05-11 21:11:00,
2013-05-11 15:16:00,61.0,26.0,30.53,NW,320,3.0,14.0,26,-99.99,,,-99.99,,2013-05-11 21:16:00,
2013-05-11 15:21:00,61.0,25.0,30.53,NW,310,12.0,18.0,25,-99.99,,,-99.99,,2013-05-11 21:21:00,
2013-05-11 15:26:00,62.0,26.0,30.52,West,260,8.0,17.0,25,-99.99,,,-99.99,,2013-05-11 21:26:00,
2013-05-11 15:31:00,61.0,25.0,30.52,West,260,5.0,20.0,25,-99.99,,,-99.99,,2013-05-11 21:31:00,
2013-05-11 15:41:00,61.0,25.0,30.52,WNW,290,13.0,16.0,25,-99.99,,,-99.99,,2013-05-11 21:41:00,
2013-05-11 15:46:00,62.0,27.0,30.52,North,350,10.0,17.0,27,-99.99,,,-99.99,,2013-05-11 21:46:00,
2013-05-11 15:56:00,61.0,26.0,30.52,NW,310,10.0,20.0,26,-99.99,,,-99.99,,2013-05-11 21:56:00,
2013-05-11 16:06:00,62.0,27.0,30.52,WNW,300,7.0,20.0,27,-99.99,,,-99.99,,2013-05-11 22:06:00,
2013-05-11 16:11:00,62.0,28.0,30.51,North,0,8.0,14.0,28,-99.99,,,-99.99,,2013-05-11 22:11:00,
2013-05-11 16:21:00,62.0,27.0,30.52,North,350,9.0,17.0,26,-99.99,,,-99.99,,2013-05-11 22:21:00,
2013-05-11 16:26:00,62.0,27.0,30.52,NE,50,3.0,19.0,27,-99.99,,,-99.99,,2013-05-11 22:26:00,
2013-05-11 16:36:00,60.0,28.0,30.52,WNW,290,10.0,16.0,30,-99.99,,,-99.99,,2013-05-11 22:36:00,
2013-05-11 16:41:00,59.0,28.0,30.52,North,0,16.0,21.0,31,-99.99,,,-99.99,,2013-05-11 22:41:00,
2013-05-11 16:51:00,59.0,30.0,30.52,NNW,340,14.0,22.0,33,-99.99,,,-99.99,,2013-05-11 22:51:00,
2013-05-11 17:01:00,57.0,29.0,30.53,WNW,300,16.0,22.0,34,-99.99,,,-99.99,,2013-05-11 23:01:00,
2013-05-11 17:06:00,56.0,30.0,30.53,West,280,12.0,20.0,36,-99.99,,,-99.99,,2013-05-11 23:06:00,
2013-05-11 17:11:00,55.0,29.0,30.53,NW,320,19.0,22.0,36,-99.99,,,-99.99,,2013-05-11 23:11:00,
2013-05-11 17:16:00,56.0,29.0,30.53,NNE,20,12.0,18.0,35,-99.99,,,-99.99,,2013-05-11 23:16:00,
2013-05-11 17:21:00,57.0,29.0,30.53,West,280,9.0,18.0,34,-99.99,,,-99.99,,2013-05-11 23:21:00,
2013-05-11 17:26:00,57.0,28.0,30.53,West,260,8.0,16.0,33,-99.99,,,-99.99,,2013-05-11 23:26:00,
2013-05-11 17:31:00,56.0,28.0,30.53,WNW,300,15.0,19.0,34,-99.99,,,-99.99,,2013-05-11 23:31:00,
2013-05-11 17:36:00,56.0,28.0,30.52,West,270,15.0,16.0,34,-99.99,,,-99.99,,2013-05-11 23:36:00,
2013-05-11 17:41:00,57.0,28.0,30.52,West,280,8.0,14.0,33,-99.99,,,-99.99,,2013-05-11 23:41:00,
2013-05-11 17:51:00,58.0,29.0,30.52,WNW,300,7.0,12.0,32,-99.99,,,-99.99,,2013-05-11 23:51:00,
2013-05-11 17:56:00,58.0,28.0,30.52,West,280,15.0,15.0,32,-99.99,,,-99.99,,2013-05-11 23:56:00,
2013-05-11 18:06:00,57.0,27.0,30.52,West,280,12.0,16.0,31,-99.99,,,-99.99,,2013-05-12 00:06:00,
2013-05-11 18:16:00,57.0,27.0,30.52,WNW,290,7.0,13.0,31,-99.99,,,-99.99,,2013-05-12 00:16:00,
2013-05-11 18:21:00,57.0,27.0,30.52,NW,310,5.0,9.0,32,-99.99,,,-99.99,,2013-05-12 00:21:00,
2013-05-11 18:26:00,58.0,29.0,30.51,WSW,250,19.0,19.0,33,-99.99,,,-99.99,,2013-05-12 00:26:00,
2013-05-11 18:31:00,58.0,30.0,30.51,WSW,250,17.0,18.0,34,-99.99,,,-99.99,,2013-05-12 00:31:00,
2013-05-11 18:36:00,57.0,29.0,30.52,West,280,15.0,19.0,34,-99.99,,,-99.99,,2013-05-12 00:36:00,
2013-05-11 18:41:00,57.0,29.0,30.52,West,270,16.0,18.0,35,-99.99,,,-99.99,,2013-05-12 00:41:00,
2013-05-11 18:46:00,57.0,30.0,30.52,West,260,12.0,14.0,36,-99.99,,,-99.99,,2013-05-12 00:46:00,
2013-05-11 18:51:00,56.0,30.0,30.52,West,270,15.0,17.0,36,-99.99,,,-99.99,,2013-05-12 00:51:00,
2013-05-11 19:01:00,56.0,30.0,30.52,West,270,10.0,15.0,37,-99.99,,,-99.99,,2013-05-12 01:01:00,
2013-05-11 19:11:00,55.0,30.0,30.52,NW,310,13.0,14.0,38,-99.99,,,-99.99,,2013-05-12 01:11:00,
2013-05-11 19:16:00,54.0,30.0,30.52,NW,320,10.0,15.0,39,-99.99,,,-99.99,,2013-05-12 01:16:00,
2013-05-11 19:21:00,54.0,29.0,30.52,NW,310,7.0,13.0,39,-99.99,,,-99.99,,2013-05-12 01:21:00,
2013-05-11 19:26:00,53.0,30.0,30.52,WNW,300,9.0,11.0,41,-99.99,,,-99.99,,2013-05-12 01:26:00,
2013-05-11 19:31:00,53.0,30.0,30.52,NW,310,4.0,11.0,41,-99.99,,,-99.99,,2013-05-12 01:31:00,
2013-05-11 19:36:00,52.0,30.0,30.52,North,350,5.0,8.0,43,-99.99,,,-99.99,,2013-05-12 01:36:00,
2013-05-11 19:41:00,52.0,30.0,30.52,NNW,340,6.0,10.0,44,-99.99,,,-99.99,,2013-05-12 01:41:00,
2013-05-11 19:46:00,51.0,31.0,30.52,NNE,30,0.0,7.0,47,-99.99,,,-99.99,,2013-05-12 01:46:00,
2013-05-11 19:51:00,51.0,31.0,30.52,NNE,20,4.0,5.0,47,-99.99,,,-99.99,,2013-05-12 01:51:00,
2013-05-11 19:56:00,50.0,32.0,30.53,WNW,300,8.0,8.0,49,-99.99,,,-99.99,,2013-05-12 01:56:00,
2013-05-11 20:06:00,49.0,32.0,30.53,NNE,20,6.0,7.0,52,-99.99,,,-99.99,,2013-05-12 02:06:00,
2013-05-11 20:16:00,48.0,32.0,30.53,North,350,7.0,9.0,54,-99.99,,,-99.99,,2013-05-12 02:16:00,
2013-05-11 20:21:00,48.0,33.0,30.53,NE,40,6.0,10.0,56,-99.99,,,-99.99,,2013-05-12 02:21:00,
2013-05-11 20:31:00,47.0,33.0,30.53,NNW,340,10.0,10.0,59,-99.99,,,-99.99,,2013-05-12 02:31:00,
2013-05-11 20:36:00,46.0,34.0,30.54,WNW,300,6.0,10.0,61,-99.99,,,-99.99,,2013-05-12 02:36:00,
2013-05-11 20:41:00,46.0,34.0,30.54,WSW,250,5.0,8.0,62,-99.99,,,-99.99,,2013-05-12 02:41:00,
2013-05-11 20:46:00,46.0,33.0,30.54,NW,320,4.0,6.0,61,-99.99,,,-99.99,,2013-05-12 02:46:00,
2013-05-11 20:56:00,46.0,33.0,30.54,NNE,30,0.0,0.0,61,-99.99,,,-99.99,,2013-05-12 02:56:00,
2013-05-11 21:01:00,46.0,33.0,30.54,NNE,30,0.0,0.0,61,-99.99,,,-99.99,,2013-05-12 03:01:00,
2013-05-11 21:11:00,45.0,33.0,30.54,NNE,30,0.0,0.0,63,-99.99,,,-99.99,,2013-05-12 03:11:00,
2013-05-11 21:21:00,45.0,34.0,30.55,NNE,30,0.0,0.0,66,-99.99,,,-99.99,,2013-05-12 03:21:00,
2013-05-11 21:31:00,44.0,34.0,30.55,NNE,30,0.0,0.0,68,-99.99,,,-99.99,,2013-05-12 03:31:00,
2013-05-11 21:36:00,44.0,34.0,30.55,NNE,30,0.0,0.0,67,-99.99,,,-99.99,,2013-05-12 03:36:00,
2013-05-11 21:46:00,43.0,33.0,30.55,NNE,30,0.0,0.0,67,-99.99,,,-99.99,,2013-05-12 03:46:00,
2013-05-11 21:51:00,43.0,33.0,30.55,NNE,30,0.0,0.0,67,-99.99,,,-99.99,,2013-05-12 03:51:00,
2013-05-11 21:56:00,43.0,33.0,30.55,NNE,30,0.0,0.0,68,-99.99,,,-99.99,,2013-05-12 03:56:00,
2013-05-11 22:01:00,43.0,34.0,30.56,NNE,30,0.0,0.0,71,-99.99,,,-99.99,,2013-05-12 04:01:00,
2013-05-11 22:06:00,42.0,34.0,30.56,NNE,30,0.0,0.0,72,-99.99,,,-99.99,,2013-05-12 04:06:00,
2013-05-11 22:11:00,42.0,34.0,30.56,NNE,30,0.0,0.0,72,-99.99,,,-99.99,,2013-05-12 04:11:00,
2013-05-11 22:21:00,42.0,34.0,30.56,NNE,30,0.0,0.0,73,-99.99,,,-99.99,,2013-05-12 04:21:00,
2013-05-11 22:26:00,41.0,34.0,30.56,NNE,30,0.0,0.0,74,-99.99,,,-99.99,,2013-05-12 04:26:00,
2013-05-11 22:31:00,41.0,34.0,30.56,NNE,30,0.0,0.0,75,-99.99,,,-99.99,,2013-05-12 04:31:00,
2013-05-11 22:36:00,41.0,34.0,30.56,NNE,30,0.0,0.0,76,-99.99,,,-99.99,,2013-05-12 04:36:00,
2013-05-11 22:46:00,40.0,34.0,30.56,NNE,30,0.0,0.0,76,-99.99,,,-99.99,,2013-05-12 04:46:00,
2013-05-11 22:51:00,40.0,33.0,30.56,NNE,30,0.0,0.0,77,-99.99,,,-99.99,,2013-05-12 04:51:00,
2013-05-11 22:56:00,40.0,33.0,30.56,NNE,30,0.0,0.0,78,-99.99,,,-99.99,,2013-05-12 04:56:00,
2013-05-11 23:01:00,39.0,33.0,30.56,NNE,30,0.0,0.0,79,-99.99,,,-99.99,,2013-05-12 05:01:00,
2013-05-11 23:11:00,39.0,33.0,30.56,NNE,30,0.0,0.0,80,-99.99,,,-99.99,,2013-05-12 05:11:00,
2013-05-11 23:16:00,39.0,33.0,30.56,NNE,30,0.0,0.0,80,-99.99,,,-99.99,,2013-05-12 05:16:00,
2013-05-11 23:26:00,39.0,33.0,30.56,NNW,340,6.0,6.0,81,-99.99,,,-99.99,,2013-05-12 05:26:00,
2013-05-11 23:31:00,38.0,34.0,30.55,West,280,5.0,7.0,82,-99.99,,,-99.99,,2013-05-12 05:31:00,
2013-05-11 23:36:00,38.0,33.0,30.55,ENE,60,4.0,6.0,83,-99.99,,,-99.99,,2013-05-12 05:36:00,
2013-05-11 23:46:00,38.0,34.0,30.55,North,0,0.0,5.0,85,-99.99,,,-99.99,,2013-05-12 05:46:00,
2013-05-11 23:51:00,38.0,33.0,30.55,NW,310,0.0,4.0,83,-99.99,,,-99.99,,2013-05-12 05:51:00,
2013-05-11 23:56:00,38.0,33.0,30.55,NW,310,5.0,5.0,84,-99.99,,,-99.99,,2013-05-12 05:56:00,